Hourly Weather Leszno

Today, 23 January, Saturday

Time Temperature Precipitation Wind Pressure Humidity
00:00 +2°C° 0 mm 2 mps 739 mmHg 91%
01:00 +3°C° 0 mm 1 mps 739 mmHg 92%
02:00 +2°C° 0 mm 2 mps 739 mmHg 92%
03:00 +1°C° 0 mm 2 mps 738 mmHg 93%
04:00 0°C° 0 mm 3 mps 738 mmHg 93%
05:00 0°C° 0.1 mm 3 mps 737 mmHg 93%
06:00 0°C° 0.1 mm 4 mps 737 mmHg 93%
07:00 0°C° 0.1 mm 5 mps 736 mmHg 93%
08:00 0°C° 1.5 mm 5 mps 735 mmHg 94%
09:00 +1°C° 1.5 mm 5 mps 735 mmHg 95%
10:00 +1°C° 1.5 mm 5 mps 734 mmHg 96%
11:00 +2°C° 0.1 mm 5 mps 733 mmHg 93%
12:00 +3°C° 0.1 mm 5 mps 733 mmHg 90%
13:00 +5°C° 2.2 mm 5 mps 735 mmHg 89%
14:00 +3°C° 0 mm 5 mps 735 mmHg 90%
15:00 +2°C° 0 mm 6 mps 735 mmHg 90%
16:00 +1°C° 0 mm 6 mps 736 mmHg 91%
17:00 -1°C° 0 mm 6 mps 736 mmHg 92%
18:00 0°C° 0 mm 5 mps 737 mmHg 93%
19:00 0°C° 0 mm 5 mps 737 mmHg 93%
20:00 0°C° 0 mm 4 mps 737 mmHg 93%
21:00 +1°C° 0 mm 3 mps 738 mmHg 93%
22:00 +1°C° 0 mm 3 mps 738 mmHg 93%
23:00 -2°C° 0 mm 7 mps 737 mmHg 92%

Tomorrow, 24 January, Sunday

Time Temperature Precipitation Wind Pressure Humidity
00:00 -2°C° 0 mm 6 mps 737 mmHg 91%
01:00 -1°C° 0 mm 5 mps 738 mmHg 90%
02:00 -1°C° 0 mm 5 mps 738 mmHg 90%
03:00 -1°C° 0 mm 4 mps 738 mmHg 89%
04:00 -1°C° 0 mm 4 mps 738 mmHg 89%
05:00 0°C° 0 mm 3 mps 739 mmHg 90%
06:00 -1°C° 0 mm 3 mps 739 mmHg 91%
07:00 -1°C° 0 mm 3 mps 739 mmHg 92%
08:00 -1°C° 0 mm 3 mps 739 mmHg 91%
09:00 -1°C° 0 mm 3 mps 740 mmHg 90%
10:00 -1°C° 0 mm 3 mps 740 mmHg 89%
11:00 0°C° 0 mm 3 mps 740 mmHg 86%
12:00 0°C° 0 mm 3 mps 739 mmHg 83%
13:00 +1°C° 0 mm 3 mps 739 mmHg 80%
14:00 +1°C° 0 mm 2 mps 739 mmHg 82%
15:00 +1°C° 0 mm 2 mps 739 mmHg 84%
16:00 +2°C° 0 mm 1 mps 739 mmHg 87%
17:00 +1°C° 0 mm 1 mps 740 mmHg 87%
18:00 +1°C° 0 mm 1 mps 740 mmHg 88%
19:00 +1°C° 0 mm 1 mps 740 mmHg 89%
20:00 +1°C° 0 mm 1 mps 740 mmHg 88%
21:00 +1°C° 0 mm 1 mps 740 mmHg 88%
22:00 +1°C° 0 mm 1 mps 740 mmHg 87%
23:00 -1°C° 0 mm 2 mps 740 mmHg 87%

Day after tomorrow, 25 January, Monday

Time Temperature Precipitation Wind Pressure Humidity
00:00 -1°C° 0 mm 2 mps 741 mmHg 88%
01:00 -1°C° 0 mm 2 mps 741 mmHg 88%
02:00 -1°C° 0 mm 2 mps 741 mmHg 91%
03:00 -1°C° 0 mm 3 mps 741 mmHg 93%
04:00 -1°C° 0 mm 3 mps 742 mmHg 95%
05:00 -3°C° 0 mm 4 mps 742 mmHg 93%
06:00 -3°C° 0 mm 4 mps 742 mmHg 91%
07:00 -3°C° 0 mm 4 mps 743 mmHg 88%
08:00 -3°C° 0 mm 4 mps 743 mmHg 86%
09:00 -3°C° 0 mm 4 mps 744 mmHg 84%
10:00 -2°C° 0 mm 5 mps 744 mmHg 82%
11:00 -2°C° 0 mm 5 mps 744 mmHg 78%
12:00 -1°C° 0 mm 5 mps 744 mmHg 74%
13:00 0°C° 0 mm 5 mps 745 mmHg 70%
14:00 -1°C° 0 mm 5 mps 745 mmHg 73%
15:00 -1°C° 0 mm 4 mps 745 mmHg 76%
16:00 -2°C° 0 mm 4 mps 745 mmHg 78%
17:00 -2°C° 0 mm 4 mps 746 mmHg 80%
18:00 -3°C° 0 mm 4 mps 746 mmHg 82%
19:00 -3°C° 0 mm 4 mps 746 mmHg 84%
20:00 -3°C° 0 mm 4 mps 747 mmHg 83%
21:00 -4°C° 0 mm 5 mps 747 mmHg 82%
22:00 -4°C° 0 mm 5 mps 747 mmHg 80%
23:00 -4°C° 0 mm 5 mps 747 mmHg 80%

26 January, Tuesday

Time Temperature Precipitation Wind Pressure Humidity
00:00 -4°C° 0 mm 5 mps 747 mmHg 80%
01:00 -5°C° 0 mm 5 mps 747 mmHg 79%
02:00 -5°C° 0 mm 5 mps 747 mmHg 80%
03:00 -5°C° 0 mm 5 mps 747 mmHg 81%
04:00 -5°C° 0 mm 5 mps 747 mmHg 82%
05:00 -4°C° 0 mm 4 mps 747 mmHg 82%
06:00 -4°C° 0 mm 4 mps 748 mmHg 83%
07:00 -4°C° 0 mm 4 mps 748 mmHg 84%
08:00 -5°C° 0 mm 5 mps 748 mmHg 82%
09:00 -4°C° 0 mm 5 mps 749 mmHg 80%
10:00 -4°C° 0 mm 5 mps 749 mmHg 78%
11:00 -3°C° 0 mm 6 mps 749 mmHg 75%
12:00 -2°C° 0 mm 6 mps 749 mmHg 72%
13:00 -2°C° 0 mm 6 mps 749 mmHg 68%
14:00 -2°C° 0 mm 6 mps 749 mmHg 70%
15:00 -2°C° 0 mm 6 mps 750 mmHg 72%
16:00 -2°C° 0 mm 5 mps 750 mmHg 74%
17:00 -2°C° 0 mm 5 mps 750 mmHg 79%
18:00 -4°C° 0 mm 5 mps 750 mmHg 85%
19:00 -4°C° 0 mm 5 mps 750 mmHg 90%
20:00 -4°C° 0 mm 5 mps 750 mmHg 90%
21:00 -4°C° 0 mm 4 mps 750 mmHg 89%
22:00 -4°C° 0 mm 4 mps 750 mmHg 89%
23:00 -4°C° 0 mm 4 mps 750 mmHg 88%

27 January, Wednesday

Time Temperature Precipitation Wind Pressure Humidity
00:00 -3°C° 0 mm 4 mps 750 mmHg 88%
01:00 -3°C° 0 mm 4 mps 749 mmHg 87%
02:00 -3°C° 0 mm 4 mps 749 mmHg 88%
03:00 -3°C° 0 mm 4 mps 749 mmHg 89%
04:00 -2°C° 0 mm 3 mps 748 mmHg 90%
05:00 -2°C° 0 mm 3 mps 748 mmHg 90%
06:00 -2°C° 0 mm 3 mps 748 mmHg 89%
07:00 -2°C° 0 mm 2 mps 747 mmHg 89%
08:00 -2°C° 0 mm 2 mps 747 mmHg 84%
09:00 -1°C° 0 mm 2 mps 747 mmHg 79%
10:00 -1°C° 0 mm 3 mps 747 mmHg 74%
11:00 +1°C° 0 mm 2 mps 747 mmHg 76%
12:00 +1°C° 0 mm 2 mps 747 mmHg 79%
13:00 +1°C° 0 mm 2 mps 747 mmHg 81%
14:00 +2°C° 0 mm 1 mps 747 mmHg 86%
15:00 +2°C° 0 mm 1 mps 747 mmHg 90%
16:00 0°C° 0 mm 0 mps 748 mmHg 94%
17:00 +1°C° 0 mm 1 mps 748 mmHg 95%
18:00 +1°C° 0 mm 1 mps 749 mmHg 95%
19:00 +1°C° 0 mm 1 mps 749 mmHg 95%
20:00 -2°C° 0 mm 2 mps 750 mmHg 95%
21:00 -2°C° 0 mm 2 mps 750 mmHg 95%
22:00 -2°C° 0 mm 3 mps 751 mmHg 95%
23:00 -2°C° 0 mm 3 mps 751 mmHg 94%

28 January, Thursday

Time Temperature Precipitation Wind Pressure Humidity
00:00 -1°C° 0 mm 3 mps 751 mmHg 94%
01:00 -1°C° 0 mm 3 mps 751 mmHg 93%
02:00 -1°C° 0 mm 3 mps 751 mmHg 93%
03:00 -1°C° 0 mm 3 mps 751 mmHg 92%
04:00 -1°C° 0 mm 2 mps 751 mmHg 92%
05:00 -2°C° 0 mm 2 mps 751 mmHg 93%
06:00 -2°C° 0 mm 2 mps 750 mmHg 94%
07:00 -2°C° 0 mm 2 mps 750 mmHg 95%
08:00 -2°C° 0.1 mm 2 mps 750 mmHg 95%
09:00 -1°C° 0.1 mm 2 mps 749 mmHg 95%
10:00 -1°C° 0.1 mm 3 mps 749 mmHg 96%
11:00 -1°C° 0.3 mm 3 mps 748 mmHg 96%
12:00 0°C° 0.3 mm 3 mps 748 mmHg 97%
13:00 0°C° 0.3 mm 3 mps 747 mmHg 98%
14:00 0°C° 0.4 mm 3 mps 746 mmHg 98%
15:00 0°C° 0.4 mm 3 mps 746 mmHg 98%
16:00 +1°C° 0.4 mm 2 mps 745 mmHg 98%
17:00 +1°C° 0.4 mm 2 mps 745 mmHg 98%
18:00 +1°C° 0.4 mm 2 mps 745 mmHg 98%
19:00 +1°C° 0.4 mm 2 mps 745 mmHg 98%
Show more